Home   Weather   Ellwangen (Jagst)   Past weeks

Flag for Germany Past Weather in Ellwangen (Jagst), Baden-Württemberg, Germany — Yesterday and Last 2 Weeks

Now
54 °F

Partly sunny.


Feels Like: 49 °F
Forecast: 38 / 50 °F
Wind: 16 mph from Southeast

Location: Niederstetten

Current Time: Apr 30, 2017 at 1:14:53 pm

Latest Report: Apr 30, 2017 at 12:20 pm


Visibility: N/A

Pressure: 29.92 "Hg

Humidity: 47%

Dew Point: 34 °F

Location of Ellwangen (Jagst)Location

Past Weather in Ellwangen (Jagst) — Graph

°F

Ellwangen (Jagst) Temperature Yesterday

Maximum temperature yesterday: 54 °F (at 4:20 pm)
Minimum temperature yesterday: 37 °F (at 5:20 am)
Average temperature yesterday: 45 °F

High & Low Weather Summary for the Past Weeks

 TemperatureHumidityPressure
High59 °F (Apr 24, 4:20 pm)100% (Apr 17, 8:20 am)30.54 "Hg (Apr 17, 8:20 am)
Low27 °F (Apr 20, 5:20 am)29% (Apr 24, 5:20 pm)29.68 "Hg (Apr 25, 5:20 am)
Average41 °F71%30.08 "Hg
* Reported Apr 15 11:20 am — Apr 30 11:20 am, Ellwangen (Jagst), Weather by CustomWeather, © 2017

Note: Actual official high and low records may vary slightly from our data, if they occured in-between our weather recording intervals... More about our weather records

Advertising

Ellwangen (Jagst) Weather History for the Previous 24 Hours

Scroll right to see more
 ConditionsComfort  
Time TempWeatherWind HumidityBarometerVisibility
11:20 am
Sun, Apr 30
52 °FScattered clouds.18 mph50%29.95 "HgN/A
10:20 am50 °FPassing clouds.21 mph58%29.95 "HgN/A
9:20 am46 °FPassing clouds.14 mph66%29.98 "HgN/A
8:20 am43 °FPassing clouds.13 mph81%29.98 "HgN/A
7:20 am37 °FChilly.8 mph87%29.98 "HgN/A
6:20 am36 °FChilly.6 mph93%29.98 "HgN/A
5:20 am36 °FChilly.7 mph87%29.98 "HgN/A
4:20 am37 °FChilly.7 mph81%29.98 "HgN/A
3:20 am37 °FChilly.6 mph81%29.98 "HgN/A
2:20 am37 °FChilly.5 mph81%29.98 "HgN/A
1:20 am41 °FQuite cool.5 mph70%30.01 "HgN/A
12:20 am41 °FPassing clouds.3 mph70%30.01 "HgN/A
11:20 pm
Sat, Apr 29
43 °FPassing clouds.5 mph66%30.01 "HgN/A
10:20 pm41 °FPassing clouds.5 mph70%30.01 "HgN/A
9:20 pm45 °FPassing clouds.5 mph57%30.01 "HgN/A
8:20 pm48 °FScattered clouds.3 mph50%30.01 "HgN/A
7:20 pm52 °FPassing clouds.1 mph41%30.01 "HgN/A
6:20 pm54 °FPassing clouds.6 mph44%30.01 "HgN/A
5:20 pm52 °FScattered clouds.2 mph44%30.01 "HgN/A
4:20 pm54 °FPartly sunny.3 mph44%30.01 "HgN/A
3:20 pm50 °FPartly sunny.3 mph47%30.04 "HgN/A
2:20 pm50 °FPartly sunny.6 mph58%30.04 "HgN/A
1:20 pm50 °FPartly sunny.6 mph50%30.04 "HgN/A
Weather by CustomWeather, © 2017

See weather overviewHow to use our weather pages